Time,TemperatureF,DewpointF,PressureIn,WindDirection,WindDirectionDegrees,WindSpeedMPH,WindSpeedGustMPH,Humidity,HourlyPrecipIn,Conditions,Clouds,dailyrainin,SolarRadiationWatts/m^2,SoftwareType,DateUTC
2013-01-25 00:01:00,30.6,25.0,30.53,SSW,194,4.0,8.0,78,0.00,,,0.03,0,weatherlink.com 1.10,2013-01-25 07:01:00,
2013-01-25 00:16:00,32.1,25.0,30.53,SSW,203,10.0,12.0,76,0.00,,,0.03,0,weatherlink.com 1.10,2013-01-25 07:16:00,
2013-01-25 00:31:00,29.9,24.0,30.52,SSE,160,8.0,10.0,80,0.00,,,0.03,0,weatherlink.com 1.10,2013-01-25 07:31:00,
2013-01-25 00:47:00,30.5,25.0,30.51,South,182,3.0,13.0,80,0.00,,,0.03,0,weatherlink.com 1.10,2013-01-25 07:47:00,
2013-01-25 01:01:00,31.0,25.0,30.50,SW,215,6.0,8.0,78,0.00,,,0.03,0,weatherlink.com 1.10,2013-01-25 08:01:00,
2013-01-25 01:17:00,30.5,25.0,30.51,East,101,3.0,5.0,79,0.00,,,0.03,0,weatherlink.com 1.10,2013-01-25 08:17:00,
2013-01-25 01:32:00,32.0,26.0,30.50,SSW,194,4.0,5.0,77,0.00,,,0.03,0,weatherlink.com 1.10,2013-01-25 08:32:00,
2013-01-25 01:47:00,31.4,25.0,30.50,NE,42,2.0,4.0,77,0.00,,,0.03,0,weatherlink.com 1.10,2013-01-25 08:47:00,
2013-01-25 02:02:00,31.6,25.0,30.50,ENE,63,1.0,3.0,77,0.00,,,0.03,0,weatherlink.com 1.10,2013-01-25 09:02:00,
2013-01-25 02:17:00,31.7,25.0,30.50,ENE,75,4.0,6.0,77,0.00,,,0.03,0,weatherlink.com 1.10,2013-01-25 09:17:00,
2013-01-25 02:32:00,32.8,25.0,30.50,NNW,340,2.0,4.0,74,0.00,,,0.03,0,weatherlink.com 1.10,2013-01-25 09:32:00,
2013-01-25 02:47:00,33.5,25.0,30.49,WNW,302,3.0,4.0,72,0.00,,,0.03,0,weatherlink.com 1.10,2013-01-25 09:47:00,
2013-01-25 03:02:00,33.6,25.0,30.49,ENE,76,2.0,6.0,72,0.00,,,0.03,0,weatherlink.com 1.10,2013-01-25 10:02:00,
2013-01-25 03:17:00,34.2,26.0,30.49,NE,42,3.0,5.0,71,0.00,,,0.03,0,weatherlink.com 1.10,2013-01-25 10:17:00,
2013-01-25 03:32:00,35.6,26.0,30.48,East,80,3.0,5.0,69,0.00,,,0.03,0,weatherlink.com 1.10,2013-01-25 10:32:00,
2013-01-25 03:47:00,34.6,26.0,30.49,NNW,345,0.0,7.0,70,0.00,,,0.03,0,weatherlink.com 1.10,2013-01-25 10:47:00,
2013-01-25 04:02:00,34.6,27.0,30.49,SW,219,3.0,7.0,73,0.00,,,0.03,0,weatherlink.com 1.10,2013-01-25 11:02:00,
2013-01-25 04:17:00,35.1,26.0,30.48,SSW,196,3.0,5.0,70,0.00,,,0.00,0,weatherlink.com 1.10,2013-01-25 11:17:00,
2013-01-25 04:32:00,34.6,26.0,30.48,NW,316,2.0,3.0,71,0.00,,,0.00,0,weatherlink.com 1.10,2013-01-25 11:32:00,
2013-01-25 04:47:00,33.7,26.0,30.49,NNW,348,0.0,2.0,73,0.00,,,0.00,0,weatherlink.com 1.10,2013-01-25 11:47:00,
2013-01-25 05:02:00,34.4,26.0,30.49,NNE,30,3.0,4.0,71,0.00,,,0.00,0,weatherlink.com 1.10,2013-01-25 12:02:00,
2013-01-25 05:17:00,35.1,26.0,30.48,East,84,3.0,5.0,70,0.00,,,0.00,0,weatherlink.com 1.10,2013-01-25 12:17:00,
2013-01-25 05:32:00,36.0,26.0,30.49,East,84,0.0,1.0,68,0.00,,,0.00,0,weatherlink.com 1.10,2013-01-25 12:32:00,
2013-01-25 05:47:00,35.2,27.0,30.49,NW,315,2.0,4.0,71,0.00,,,0.00,0,weatherlink.com 1.10,2013-01-25 12:47:00,
2013-01-25 06:02:00,35.9,27.0,30.48,East,94,3.0,5.0,70,0.00,,,0.00,0,weatherlink.com 1.10,2013-01-25 13:02:00,
2013-01-25 06:17:00,36.6,27.0,30.48,WSW,240,4.0,4.0,67,0.00,,,0.00,0,weatherlink.com 1.10,2013-01-25 13:17:00,
2013-01-25 06:32:00,31.8,26.0,30.49,NE,48,3.0,5.0,78,0.00,,,0.00,0,weatherlink.com 1.10,2013-01-25 13:32:00,
2013-01-25 06:47:00,34.3,27.0,30.48,ESE,102,4.0,7.0,74,0.00,,,0.00,0,weatherlink.com 1.10,2013-01-25 13:47:00,
2013-01-25 07:02:00,32.3,26.0,30.49,SSW,192,2.0,5.0,78,0.00,,,0.00,0,weatherlink.com 1.10,2013-01-25 14:02:00,
2013-01-25 07:17:00,-999.0,-99.9,30.48,North,-999,-999.0,-999.0,-999,0.00,,,0.00,,weatherlink.com 1.10,2013-01-25 14:17:00,
2013-01-25 07:32:00,33.6,26.0,30.48,SW,236,0.0,0.0,75,0.00,,,0.00,0,weatherlink.com 1.10,2013-01-25 14:32:00,
2013-01-25 07:47:00,33.0,27.0,30.48,East,83,0.0,3.0,78,0.00,,,0.00,0,weatherlink.com 1.10,2013-01-25 14:47:00,
2013-01-25 08:02:00,34.4,27.0,30.48,East,83,0.0,3.0,73,0.00,,,0.00,0,weatherlink.com 1.10,2013-01-25 15:02:00,
2013-01-25 08:17:00,35.2,27.0,30.48,East,83,2.0,2.0,72,0.00,,,0.00,5,weatherlink.com 1.10,2013-01-25 15:17:00,
2013-01-25 08:32:00,35.9,27.0,30.48,East,83,3.0,5.0,71,0.00,,,0.00,32,weatherlink.com 1.10,2013-01-25 15:32:00,
2013-01-25 08:47:00,34.9,27.0,30.48,ENE,64,4.0,5.0,72,0.00,,,0.00,21,weatherlink.com 1.10,2013-01-25 15:47:00,
2013-01-25 09:02:00,36.0,28.0,30.48,North,5,2.0,5.0,72,0.00,,,0.00,28,weatherlink.com 1.10,2013-01-25 16:02:00,
2013-01-25 09:17:00,35.6,27.0,30.48,South,182,1.0,4.0,72,0.00,,,0.00,42,weatherlink.com 1.10,2013-01-25 16:17:00,
2013-01-25 09:32:00,35.4,28.0,30.48,WSW,251,4.0,5.0,74,0.00,,,0.00,53,weatherlink.com 1.10,2013-01-25 16:32:00,
2013-01-25 09:47:00,34.1,27.0,30.49,West,279,3.0,4.0,76,0.00,,,0.00,79,weatherlink.com 1.10,2013-01-25 16:47:00,
2013-01-25 10:02:00,33.4,27.0,30.49,ENE,57,2.0,2.0,78,0.00,,,0.00,88,weatherlink.com 1.10,2013-01-25 17:02:00,
2013-01-25 10:17:00,34.4,28.0,30.48,SSE,152,1.0,5.0,77,0.00,,,0.00,114,weatherlink.com 1.10,2013-01-25 17:17:00,
2013-01-25 10:32:00,37.7,29.0,30.48,South,169,3.0,10.0,71,0.00,,,0.00,111,weatherlink.com 1.10,2013-01-25 17:32:00,
2013-01-25 10:47:00,35.7,27.0,30.48,South,171,3.0,9.0,72,0.00,,,0.00,139,weatherlink.com 1.10,2013-01-25 17:47:00,
2013-01-25 11:02:00,36.0,28.0,30.48,SSE,159,3.0,7.0,74,0.00,,,0.00,132,weatherlink.com 1.10,2013-01-25 18:02:00,
2013-01-25 11:17:00,38.9,29.0,30.48,SSE,166,7.0,12.0,69,0.00,,,0.00,165,weatherlink.com 1.10,2013-01-25 18:17:00,
2013-01-25 11:32:00,40.4,30.0,30.47,SSE,150,11.0,11.0,67,0.00,,,0.00,156,weatherlink.com 1.10,2013-01-25 18:32:00,
2013-01-25 11:48:00,37.4,29.0,30.46,SE,146,8.0,11.0,73,0.00,,,0.00,181,weatherlink.com 1.10,2013-01-25 18:48:00,
2013-01-25 12:03:00,39.3,31.0,30.45,SSW,196,6.0,16.0,71,0.00,,,0.00,169,weatherlink.com 1.10,2013-01-25 19:03:00,
2013-01-25 12:18:00,41.4,31.0,30.45,SE,146,9.0,17.0,67,0.00,,,0.00,167,weatherlink.com 1.10,2013-01-25 19:18:00,
2013-01-25 12:33:00,41.0,30.0,30.45,NW,306,2.0,15.0,66,0.00,,,0.00,165,weatherlink.com 1.10,2013-01-25 19:33:00,
2013-01-25 12:48:00,36.5,29.0,30.44,ESE,102,2.0,4.0,75,0.00,,,0.00,149,weatherlink.com 1.10,2013-01-25 19:48:00,
2013-01-25 13:03:00,40.5,32.0,30.43,SSE,160,8.0,11.0,72,0.00,,,0.00,128,weatherlink.com 1.10,2013-01-25 20:03:00,
2013-01-25 13:18:00,41.7,32.0,30.42,SSE,148,5.0,10.0,69,0.00,,,0.00,120,weatherlink.com 1.10,2013-01-25 20:18:00,
2013-01-25 13:33:00,42.1,33.0,30.41,SE,142,0.0,11.0,69,0.00,,,0.00,181,weatherlink.com 1.10,2013-01-25 20:33:00,
2013-01-25 13:48:00,41.6,33.0,30.40,SSE,157,5.0,10.0,71,0.00,,,0.00,160,weatherlink.com 1.10,2013-01-25 20:48:00,
2013-01-25 14:03:00,41.8,32.0,30.39,WSW,250,5.0,11.0,69,0.00,,,0.00,172,weatherlink.com 1.10,2013-01-25 21:03:00,
2013-01-25 14:18:00,41.7,33.0,30.38,SSE,163,4.0,8.0,72,0.00,,,0.00,146,weatherlink.com 1.10,2013-01-25 21:18:00,
2013-01-25 14:33:00,41.9,33.0,30.38,SSE,150,0.0,6.0,70,0.00,,,0.00,148,weatherlink.com 1.10,2013-01-25 21:33:00,
2013-01-25 14:48:00,42.3,33.0,30.37,SE,136,5.0,5.0,69,0.00,,,0.00,141,weatherlink.com 1.10,2013-01-25 21:48:00,
2013-01-25 15:03:00,43.4,33.0,30.37,SE,144,8.0,9.0,68,0.00,,,0.00,139,weatherlink.com 1.10,2013-01-25 22:03:00,
2013-01-25 15:18:00,43.9,34.0,30.36,South,176,6.0,17.0,67,0.00,,,0.00,84,weatherlink.com 1.10,2013-01-25 22:18:00,
2013-01-25 15:33:00,43.5,34.0,30.36,West,263,3.0,10.0,68,0.00,,,0.00,70,weatherlink.com 1.10,2013-01-25 22:33:00,
2013-01-25 15:48:00,43.0,33.0,30.35,SSE,156,7.0,8.0,69,0.00,,,0.00,93,weatherlink.com 1.10,2013-01-25 22:48:00,
2013-01-25 16:03:00,43.6,34.0,30.35,SSE,167,6.0,14.0,68,0.00,,,0.00,86,weatherlink.com 1.10,2013-01-25 23:03:00,
2013-01-25 16:18:00,43.4,34.0,30.34,SSW,205,7.0,10.0,69,0.00,,,0.00,58,weatherlink.com 1.10,2013-01-25 23:18:00,
2013-01-25 16:33:00,42.7,34.0,30.34,ESE,116,5.0,5.0,70,0.00,,,0.00,58,weatherlink.com 1.10,2013-01-25 23:33:00,
2013-01-25 16:48:00,43.4,34.0,30.34,SE,136,8.0,8.0,69,0.00,,,0.00,42,weatherlink.com 1.10,2013-01-25 23:48:00,
2013-01-25 17:03:00,43.4,34.0,30.34,SE,142,7.0,9.0,69,0.00,,,0.00,12,weatherlink.com 1.10,2013-01-26 00:03:00,
2013-01-25 17:18:00,43.3,34.0,30.34,SE,139,7.0,10.0,70,0.00,,,0.00,0,weatherlink.com 1.10,2013-01-26 00:18:00,
2013-01-25 17:33:00,43.3,34.0,30.34,SSE,167,6.0,12.0,70,0.00,,,0.00,0,weatherlink.com 1.10,2013-01-26 00:33:00,
2013-01-25 17:48:00,43.3,34.0,30.33,SE,144,8.0,13.0,70,0.00,,,0.00,0,weatherlink.com 1.10,2013-01-26 00:48:00,
2013-01-25 18:03:00,43.1,34.0,30.33,SE,144,9.0,13.0,71,0.00,,,0.00,0,weatherlink.com 1.10,2013-01-26 01:03:00,
2013-01-25 18:18:00,43.2,34.0,30.33,SE,142,6.0,9.0,71,0.00,,,0.00,0,weatherlink.com 1.10,2013-01-26 01:18:00,
2013-01-25 18:33:00,42.9,34.0,30.33,ESE,121,3.0,7.0,71,0.00,,,0.00,0,weatherlink.com 1.10,2013-01-26 01:33:00,
2013-01-25 18:48:00,42.6,34.0,30.33,South,171,1.0,8.0,72,0.00,,,0.00,0,weatherlink.com 1.10,2013-01-26 01:48:00,
2013-01-25 19:03:00,42.0,34.0,30.33,SW,215,1.0,4.0,73,0.00,,,0.00,0,weatherlink.com 1.10,2013-01-26 02:03:00,
2013-01-25 19:18:00,40.6,34.0,30.33,NNW,327,4.0,5.0,76,0.00,,,0.00,0,weatherlink.com 1.10,2013-01-26 02:18:00,
2013-01-25 19:33:00,39.7,34.0,30.34,South,180,1.0,5.0,80,0.00,,,0.00,0,weatherlink.com 1.10,2013-01-26 02:33:00,
2013-01-25 19:48:00,39.7,34.0,30.33,South,175,0.0,7.0,81,0.00,,,0.00,0,weatherlink.com 1.10,2013-01-26 02:48:00,
2013-01-25 20:03:00,38.7,34.0,30.33,SE,127,4.0,5.0,82,0.01,,,0.01,0,weatherlink.com 1.10,2013-01-26 03:03:00,
2013-01-25 20:18:00,40.2,35.0,30.32,SE,142,8.0,14.0,83,0.01,,,0.01,0,weatherlink.com 1.10,2013-01-26 03:18:00,
2013-01-25 20:33:00,40.3,35.0,30.32,SSW,200,1.0,14.0,82,0.01,,,0.01,0,weatherlink.com 1.10,2013-01-26 03:33:00,
2013-01-25 20:48:00,38.4,35.0,30.32,SSE,150,9.0,11.0,86,0.01,,,0.01,0,weatherlink.com 1.10,2013-01-26 03:48:00,
2013-01-25 21:03:00,39.8,35.0,30.31,SSE,162,7.0,12.0,83,0.00,,,0.01,0,weatherlink.com 1.10,2013-01-26 04:03:00,
2013-01-25 21:18:00,40.3,36.0,30.30,SSE,155,16.0,16.0,83,0.01,,,0.02,0,weatherlink.com 1.10,2013-01-26 04:18:00,
2013-01-25 21:33:00,40.0,35.0,30.28,SE,136,18.0,23.0,83,0.01,,,0.02,0,weatherlink.com 1.10,2013-01-26 04:33:00,
2013-01-25 21:48:00,39.8,35.0,30.29,SE,146,17.0,22.0,84,0.01,,,0.02,0,weatherlink.com 1.10,2013-01-26 04:48:00,
2013-01-25 22:03:00,40.2,35.0,30.28,SSE,167,9.0,20.0,83,0.01,,,0.02,0,weatherlink.com 1.10,2013-01-26 05:03:00,
2013-01-25 22:18:00,40.0,35.0,30.27,SSE,157,16.0,21.0,83,0.00,,,0.02,0,weatherlink.com 1.10,2013-01-26 05:18:00,
2013-01-25 22:34:00,40.1,35.0,30.27,SSE,147,15.0,20.0,83,0.00,,,0.02,0,weatherlink.com 1.10,2013-01-26 05:34:00,
2013-01-25 23:04:00,39.8,35.0,30.28,SE,126,8.0,18.0,83,0.00,,,0.02,0,weatherlink.com 1.10,2013-01-26 06:04:00,
2013-01-25 23:19:00,40.1,35.0,30.27,SE,144,9.0,19.0,83,0.00,,,0.02,0,weatherlink.com 1.10,2013-01-26 06:19:00,
2013-01-25 23:34:00,39.9,35.0,30.27,SE,142,13.0,16.0,83,0.00,,,0.02,0,weatherlink.com 1.10,2013-01-26 06:34:00,
2013-01-25 23:49:00,39.9,35.0,30.27,SE,146,14.0,17.0,82,0.00,,,0.02,0,weatherlink.com 1.10,2013-01-26 06:49:00,